Regional Weather Roundup
Issued by NWS Jackson, KY

Home | Current Version | Previous Version | Text Only | Print | Product List | Glossary Off
Versions: 1 2 3 4 5 6 7 8 9 10 11 12 13 14 15 16 17 18 19 20 21 22 23 24 25 26 27 28 29 30 31 32 33 34 35 36 37 38 39 40 41 42 43 44 45 46 47 48 49 50

000
ASUS43 KJKL 170610
RWRJKL

EAST KENTUCKY HOURLY WEATHER ROUNDUP
NATIONAL WEATHER SERVICE JACKSON KY
200 AM EDT THU AUG 17 2017

NOTE: "FAIR" INDICATES FEW OR NO CLOUDS BELOW 12,000 FEET WITH
NO SIGNIFICANT WEATHER AND/OR OBSTRUCTIONS TO VISIBILITY.

* THESE REPORTS ARE NOT UNDER NWS QUALITY CONTROL AND MAY NOT
  REPORT WEATHER SUCH AS PRECIPITATION AND FOG.

KYZ079-080-083-085-087-088-110-112-115-119-120-170700
...EASTERN KENTUCKY...

CITY           SKY/WX    TMP DP  RH WIND       PRES   REMARKS
JACKSON        CLEAR     73  71  93 CALM      30.04F
6HR MIN TEMP:  73; 6HR MAX TEMP:  76;

LONDON         CLOUDY    74  72  93 CALM      30.05F
6HR MIN TEMP:  74; 6HR MAX TEMP:  83;

SOMERSET*      CLEAR     72  72 100 CALM      30.04F FOG
MONTICELLO*    PTCLDY    73  73 100 NW8       30.05F
6HR MIN TEMP:  72; 6HR MAX TEMP:  80; 6HR PCP:  0.01;

WILLIAMSBURG*  CLOUDY    73  73 100 S3        30.05S
MIDDLESBORO*   PTCLDY    72  72 100 CALM      30.07S
6HR MIN TEMP:  72; 6HR MAX TEMP:  80;

HARLAN APT*    CLOUDY    70  68  94 CALM      30.08F
PIKE CO APT*     N/A     71  71 100 SE3       30.06F
BIG SANDY APT* CLEAR     73  73 100 CALM      30.04F
6HR MIN TEMP:  72; 6HR MAX TEMP:  77;

MOREHEAD APT*  PTCLDY    73  72  94 SE5       30.03F
$$

KYZ035-036-041-042-044-050-067-078-099-170700
...CENTRAL KENTUCKY...

CITY           SKY/WX    TMP DP  RH WIND       PRES   REMARKS
MT STERLING*   CLEAR     73  72  94 SW5       30.03F
FLEMING/MASON* CLEAR     73  72  96 S6        30.01F
DANVILLE*      PTCLDY    72  72 100 SW3       30.03F
LEXINGTON      CLEAR     75  70  84 SE6       30.00F
6HR MIN TEMP:  74; 6HR MAX TEMP:  84;

FRANKFORT      PTCLDY    76  70  82 S5        29.98F
6HR MIN TEMP:  75; 6HR MAX TEMP:  85;

LOUISVILLE     MOCLDY    78  72  81 SE9       29.94F
6HR MIN TEMP:  78; 6HR MAX TEMP:  87;

LEBANON*         N/A     75  73  94 S9        30.00F
GLASGOW*       PTCLDY    76  75  97 S3        29.99F
BOWLING GREEN  PTCLDY    77  75  93 CALM      29.98F
6HR MIN TEMP:  77; 6HR MAX TEMP:  82;

$$

KYZ091>093-OHZ055-061-077-WVZ005-015-034-035-042-170700
...SOUTHERN OHIO/WEST VIRGINIA...

CITY           SKY/WX    TMP DP  RH WIND       PRES   REMARKS
COVINGTON      PTCLDY    75  73  93 S7        29.97F
COLUMBUS       MOCLDY    77  71  82 SE5       29.98F
DAYTON         PTCLDY    76  70  82 S8        29.97F
WILMINGTON     PTCLDY    74  72  93 S7        29.98F
HUNTINGTON     CLEAR     71  69  93 E3        30.01F FOG
CHARLESTON     PTCLDY    71  69  93 CALM      30.04F FOG
PINEVILLE*     CLOUDY    69  67  96 MISG      30.15S FOG
BECKLEY        MOCLDY    67  63  87 S3        30.13S
BLUEFIELD      CLOUDY    69  64  84 W6        30.16S
LOGAN CO APT*    N/A     70  70 100 CALM      30.07F FOG
$$

VAZ002-007-008-TNZ017-027-036-066-071-170700
...SOUTHWEST VIRGINIA/EAST TENNESSEE...

CITY           SKY/WX    TMP DP  RH WIND       PRES   REMARKS
WISE*          PTCLDY    68  68 100 S3        30.16F
JONESVILLE*    FOG       70  70 100 CALM      30.10F VSB 1
ABINGDON*      CLOUDY    72  72 100 E3        30.13F
BRISTOL        FOG       70  70 100 CALM      30.09F VSB 1
MORRISTOWN*    CLEAR     73  73 100 CALM      30.06F
SEVIERVILLE*   PTCLDY    73  70  88 CALM      30.05S
KNOXVILLE      PTCLDY    75  71  87 SW5       30.05S
OAK RIDGE      CLEAR     76  73  91 S3        30.06F
CROSSVILLE     CLEAR     72  70  93 CALM      30.11F
NASHVILLE      PTCLDY    75  73  93 S6        30.01F
$$

...KEY TO REMARKS...
VSB - VISIBILITY IN MILES
WCI - WIND CHILL INDEX
HX  - HEAT INDEX

$$



USA.gov is the U.S. government's official web portal to all federal, state and local government web resources and services.